Date String (YYYY-MM-DD hh:mm:ss) UTC,Instrument flags,absolute air pressure of the measurement (hPa),sample flow rate (lpm),inlet stack bypass flow (lpm),air temperature of the measurement (°C),ambient temperature measured by the external sensor (°C),aerosol sample conditioner tube jacket temperature (°C),OPC LED temperature (°C),internal box temperature (°C),relative humidity of the measurement (%),span deviation,mass concentration of particles derived from Lorenz-Mie calculation of OPC scattering (μg/m³),mass concentration of particles derived from Lorenz-Mie calculation of OPC scattering (μg/m³),mass concentration of particles derived from Lorenz-Mie calculation of OPC scattering (μg/m³)
DateTimeUTC,F1_M11,P_M11,Q1_M11,Q2_M11,T1_M11,T2_M11,T3_M11,T4_M11,T5_M11,U1_M11,ZSPAN_M11,X0_M11,X2_M11,X1_M11
2024-03-05 22:00:00,SystemResetWarning,0825.1,5.01,000.00,019.3,018.8,000.0,027.6,021.0,14.8,0000.0,0016.54,0004.81,0003.59
2024-03-05 22:01:00,SystemResetWarning,0825.1,4.99,000.00,019.3,018.8,000.0,027.6,021.0,14.8,0000.0,0015.69,0004.88,0003.65
2024-03-05 22:02:00,SystemResetWarning,0825.1,4.99,000.00,019.3,018.8,000.0,027.6,021.0,14.7,0000.0,0015.72,0004.96,0003.71
2024-03-05 22:03:00,SystemResetWarning,0825.1,5.00,000.00,019.3,018.8,000.0,027.6,021.0,14.7,0000.0,0016.65,0005.01,0003.76
2024-03-05 22:04:00,SystemResetWarning,0825.1,5.01,000.00,019.3,018.8,000.0,027.6,021.0,14.8,0000.0,0016.15,0005.05,0003.82
2024-03-05 22:05:00,SystemResetWarning,0825.1,5.01,000.00,019.3,018.8,000.0,027.6,021.0,14.9,0000.0,0014.72,0005.09,0003.85
2024-03-05 22:06:00,SystemResetWarning,0825.1,4.98,000.00,019.3,018.8,000.0,027.7,021.0,14.8,0000.0,0016.22,0005.12,0003.87
2024-03-05 22:07:00,SystemResetWarning,0825.1,5.00,000.00,019.3,018.8,000.0,027.7,021.0,14.8,0000.0,0016.31,0005.13,0003.88
2024-03-05 22:08:00,SystemResetWarning,0825.0,5.00,000.00,019.3,018.8,000.0,027.7,021.0,14.9,0000.0,0016.79,0005.15,0003.87
2024-03-05 22:09:00,SystemResetWarning,0825.0,5.00,000.00,019.3,018.8,000.0,027.7,021.0,14.9,0000.0,0017.32,0005.11,0003.81
2024-03-05 22:10:00,SystemResetWarning,0825.0,5.00,000.00,019.3,018.8,000.0,027.7,021.0,14.9,0000.0,0018.16,0005.04,0003.74
2024-03-05 22:11:00,SystemResetWarning,0825.0,5.00,000.00,019.4,018.8,000.0,027.7,021.1,14.9,0000.0,0018.21,0004.95,0003.66
2024-03-05 22:12:00,SystemResetWarning,0825.0,5.00,000.00,019.4,018.8,000.0,027.7,021.1,14.8,0000.0,0018.69,0004.86,0003.61
2024-03-05 22:13:00,SystemResetWarning,0825.0,4.99,000.00,019.4,018.8,000.0,027.7,021.1,14.7,0000.0,0019.25,0004.76,0003.56
2024-03-05 22:14:00,SystemResetWarning,0825.0,4.99,000.00,019.4,018.8,000.0,027.7,021.1,14.8,0000.0,0019.08,0004.69,0003.52
2024-03-05 22:15:00,SystemResetWarning,0825.0,5.00,000.00,019.4,018.8,000.0,027.7,021.1,14.8,0000.0,0019.21,0004.66,0003.49
2024-03-05 22:16:00,SystemResetWarning,0825.0,5.00,000.00,019.4,018.9,000.0,027.7,021.1,14.8,0000.0,0019.16,0004.67,0003.47
2024-03-05 22:17:00,SystemResetWarning,0825.0,5.00,000.00,019.4,018.9,000.0,027.7,021.2,14.6,0000.0,0018.07,0004.73,0003.49
2024-03-05 22:18:00,SystemResetWarning,0825.0,5.00,000.00,019.4,018.9,000.0,027.7,021.2,14.4,0000.0,0017.83,0004.71,0003.50
2024-03-05 22:19:00,SystemResetWarning,0825.1,5.00,000.00,019.4,018.9,000.0,027.7,021.1,14.5,0000.0,0017.67,0004.70,0003.50
2024-03-05 22:20:00,SystemResetWarning,0825.1,5.00,000.00,019.4,018.9,000.0,027.7,021.1,14.4,0000.0,0016.91,0004.65,0003.51
2024-03-05 22:21:00,SystemResetWarning,0825.0,5.01,000.00,019.4,018.9,000.0,027.8,021.1,14.4,0000.0,0016.79,0004.69,0003.53
2024-03-05 22:22:00,SystemResetWarning,0825.0,5.00,000.00,019.5,018.9,000.0,027.8,021.1,14.5,0000.0,0016.75,0004.72,0003.55
2024-03-05 22:23:00,SystemResetWarning,0825.0,5.00,000.00,019.5,018.9,000.0,027.8,021.2,14.5,0000.0,0016.47,0004.74,0003.57
2024-03-05 22:24:00,SystemResetWarning,0825.1,5.00,000.00,019.5,018.9,000.0,027.8,021.2,14.7,0000.0,0016.51,0004.83,0003.60
2024-03-05 22:25:00,SystemResetWarning,0825.1,5.00,000.00,019.5,018.9,000.0,027.8,021.2,14.4,0000.0,0016.47,0004.85,0003.61
2024-03-05 22:26:00,SystemResetWarning,0825.1,5.00,000.00,019.5,018.9,000.0,027.8,021.2,14.5,0000.0,0016.86,0004.87,0003.64
2024-03-05 22:27:00,SystemResetWarning,0825.1,5.00,000.00,019.5,018.9,000.0,027.8,021.2,14.5,0000.0,0017.00,0004.90,0003.66
2024-03-05 22:28:00,SystemResetWarning,0825.0,5.00,000.00,019.5,018.9,000.0,027.8,021.2,14.4,0000.0,0016.56,0004.88,0003.70
2024-03-05 22:29:00,SystemResetWarning,0825.0,5.00,000.00,019.5,018.9,000.0,027.8,021.2,14.4,0000.0,0016.03,0004.90,0003.73
2024-03-05 22:30:00,SystemResetWarning,0824.9,5.01,000.00,019.5,018.9,000.0,027.8,021.2,14.3,0000.0,0016.13,0004.93,0003.76
2024-03-05 22:31:00,SystemResetWarning,0824.9,5.00,000.00,019.5,018.9,000.0,027.8,021.2,14.4,0000.0,0016.55,0004.95,0003.80
2024-03-05 22:32:00,SystemResetWarning,0824.9,5.00,000.00,019.5,018.9,000.0,027.8,021.2,14.4,0000.0,0015.94,0004.99,0003.84
2024-03-05 22:33:00,SystemResetWarning,0824.9,5.00,000.00,019.5,018.9,000.0,027.9,021.2,14.3,0000.0,0015.76,0004.96,0003.86
2024-03-05 22:34:00,SystemResetWarning,0824.9,4.99,000.00,019.5,019.0,000.0,027.9,021.2,14.3,0000.0,0016.09,0005.01,0003.90
2024-03-05 22:35:00,SystemResetWarning,0824.9,4.99,000.00,019.5,019.0,000.0,027.9,021.2,14.3,0000.0,0015.31,0005.02,0003.93
2024-03-05 22:36:00,SystemResetWarning,0824.9,5.00,000.00,019.5,019.0,000.0,027.9,021.2,14.3,0000.0,0014.98,0005.07,0003.97
2024-03-05 22:37:00,SystemResetWarning,0824.9,5.00,000.00,019.5,019.0,000.0,027.9,021.2,14.2,0000.0,0013.68,0005.10,0003.97
2024-03-05 22:38:00,SystemResetWarning,0824.9,5.01,000.00,019.5,019.0,000.0,027.9,021.2,14.2,0000.0,0014.38,0005.12,0003.99
2024-03-05 22:39:00,SystemResetWarning,0824.9,5.00,000.00,019.5,019.0,000.0,027.9,021.2,14.3,0000.0,0015.08,0005.09,0003.99
2024-03-05 22:40:00,SystemResetWarning,0824.9,5.00,000.00,019.5,019.0,000.0,027.9,021.3,14.3,0000.0,0015.61,0005.12,0004.00
2024-03-05 22:41:00,SystemResetWarning,0824.9,4.99,000.00,019.5,018.9,000.0,027.9,021.3,14.3,0000.0,0016.55,0005.10,0004.00
2024-03-05 22:42:00,SystemResetWarning,0824.9,5.00,000.00,019.5,018.9,000.0,027.9,021.3,14.3,0000.0,0016.43,0005.07,0003.99
2024-03-05 22:43:00,SystemResetWarning,0824.9,5.00,000.00,019.5,018.9,000.0,027.9,021.3,14.3,0000.0,0017.52,0005.07,0003.98
2024-03-05 22:44:00,SystemResetWarning,0824.9,5.00,000.00,019.6,019.0,000.0,027.9,021.3,14.4,0000.0,0017.16,0005.10,0003.96
2024-03-05 22:45:00,SystemResetWarning,0824.9,5.00,000.00,019.6,019.0,000.0,027.9,021.3,14.4,0000.0,0016.81,0005.06,0003.93
2024-03-05 22:46:00,SystemResetWarning,0824.9,5.00,000.00,019.6,019.0,000.0,027.9,021.3,14.4,0000.0,0017.69,0005.04,0003.90
2024-03-05 22:47:00,SystemResetWarning,0824.9,5.00,000.00,019.6,019.0,000.0,027.9,021.3,14.3,0000.0,0018.61,0004.98,0003.86
2024-03-05 22:48:00,SystemResetWarning,0824.9,5.00,000.00,019.6,019.0,000.0,027.9,021.3,14.3,0000.0,0018.93,0004.97,0003.84
2024-03-05 22:49:00,SystemResetWarning,0824.9,5.00,000.00,019.6,019.0,000.0,027.9,021.3,14.4,0000.0,0017.79,0004.85,0003.79
2024-03-05 22:50:00,SystemResetWarning,0824.9,5.00,000.00,019.6,019.0,000.0,027.9,021.3,14.4,0000.0,0017.91,0004.83,0003.76
2024-03-05 22:51:00,SystemResetWarning,0824.8,5.00,000.00,019.6,019.0,000.0,028.0,021.3,14.5,0000.0,0017.35,0004.79,0003.73
2024-03-05 22:52:00,SystemResetWarning,0824.8,5.00,000.00,019.6,019.0,000.0,028.0,021.3,14.5,0000.0,0016.09,0004.79,0003.70
2024-03-05 22:53:00,SystemResetWarning,0824.8,5.00,000.00,019.6,019.0,000.0,028.0,021.3,14.5,0000.0,0015.89,0004.79,0003.67
2024-03-05 22:54:00,SystemResetWarning,0824.8,5.00,000.00,019.6,019.0,000.0,028.0,021.3,14.5,0000.0,0014.98,0004.76,0003.65
2024-03-05 22:55:00,SystemResetWarning,0824.8,5.00,000.00,019.6,019.0,000.0,028.0,021.3,14.5,0000.0,0014.86,0004.70,0003.63
2024-03-05 22:56:00,SystemResetWarning,0824.8,5.00,000.00,019.6,019.0,000.0,028.0,021.3,14.5,0000.0,0015.71,0004.70,0003.62
2024-03-05 22:57:00,SystemResetWarning,0824.8,5.00,000.00,019.6,019.0,000.0,028.0,021.3,14.6,0000.0,0016.08,0004.67,0003.62
2024-03-05 22:58:00,SystemResetWarning,0824.8,5.00,000.00,019.6,019.0,000.0,028.0,021.3,14.6,0000.0,0015.01,0004.66,0003.62
2024-03-05 22:59:00,SystemResetWarning,0824.8,5.00,000.00,019.6,019.0,000.0,028.0,021.3,14.6,0000.0,0016.59,0004.60,0003.62
